Date String (YYYY-MM-DD hh:mm:ss) UTC,Instrument flags,absolute air pressure of the measurement (hPa),sample flow rate (lpm),inlet stack bypass flow (lpm),air temperature of the measurement (°C),ambient temperature measured by the external sensor (°C),aerosol sample conditioner tube jacket temperature (°C),OPC LED temperature (°C),internal box temperature (°C),relative humidity of the measurement (%),span deviation,mass concentration of particles derived from Lorenz-Mie calculation of OPC scattering (μg/m³),mass concentration of particles derived from Lorenz-Mie calculation of OPC scattering (μg/m³),mass concentration of particles derived from Lorenz-Mie calculation of OPC scattering (μg/m³)
DateTimeUTC,F1_M11,P_M11,Q1_M11,Q2_M11,T1_M11,T2_M11,T3_M11,T4_M11,T5_M11,U1_M11,ZSPAN_M11,X0_M11,X2_M11,X1_M11
2023-11-30 11:00:00,SystemResetWarning,0823.0,4.99,000.00,020.6,019.6,000.0,028.9,021.8,10.8,0000.0,0008.37,0003.96,0003.64
2023-11-30 11:01:00,SystemResetWarning,0823.1,5.01,000.00,020.5,019.6,000.0,028.9,021.7,10.8,0000.0,0008.53,0003.96,0003.62
2023-11-30 11:02:00,SystemResetWarning,0823.0,5.00,000.00,020.5,019.6,000.0,028.9,021.7,10.9,0000.0,0007.76,0003.92,0003.58
2023-11-30 11:03:00,SystemResetWarning,0822.5,5.01,000.00,020.5,019.6,000.0,028.9,021.7,10.9,0000.0,0007.50,0003.88,0003.55
2023-11-30 11:04:00,SystemResetWarning,0822.6,5.00,000.00,020.5,019.5,000.0,028.9,021.7,10.9,0000.0,0007.36,0003.83,0003.52
2023-11-30 11:05:00,SystemResetWarning,0822.8,5.00,000.00,020.5,019.5,000.0,028.9,021.6,11.0,0000.0,0007.40,0003.80,0003.49
2023-11-30 11:06:00,SystemResetWarning,0822.5,5.00,000.00,020.5,019.5,000.0,028.9,021.6,11.0,0000.0,0007.39,0003.76,0003.47
2023-11-30 11:07:00,SystemResetWarning,0822.6,5.00,000.00,020.5,019.5,000.0,028.9,021.6,11.0,0000.0,0007.40,0003.74,0003.45
2023-11-30 11:08:00,SystemResetWarning,0822.6,5.00,000.00,020.5,019.5,000.0,028.9,021.7,11.0,0000.0,0007.99,0003.73,0003.42
2023-11-30 11:09:00,SystemResetWarning,0822.8,5.00,000.00,020.5,019.5,000.0,028.9,021.7,11.0,0000.0,0008.17,0003.72,0003.41
2023-11-30 11:10:00,SystemResetWarning,0822.6,5.00,000.00,020.5,019.5,000.0,028.8,021.7,11.1,0000.0,0008.48,0003.72,0003.41
2023-11-30 11:11:00,SystemResetWarning,0822.7,5.00,000.00,020.5,019.5,000.0,028.8,021.6,11.1,0000.0,0008.45,0003.73,0003.43
2023-11-30 11:12:00,SystemResetWarning,0822.6,5.00,000.00,020.5,019.5,000.0,028.8,021.6,11.2,0000.0,0008.04,0003.72,0003.45
2023-11-30 11:13:00,SystemResetWarning,0822.9,4.99,000.00,020.4,019.5,000.0,028.8,021.6,11.2,0000.0,0008.06,0003.74,0003.48
2023-11-30 11:14:00,SystemResetWarning,0823.1,5.00,000.00,020.4,019.5,000.0,028.8,021.6,11.2,0000.0,0008.07,0003.75,0003.50
2023-11-30 11:15:00,SystemResetWarning,0823.1,5.00,000.00,020.4,019.5,000.0,028.8,021.6,11.1,0000.0,0008.13,0003.76,0003.51
2023-11-30 11:16:00,SystemResetWarning,0823.1,5.00,000.00,020.4,019.5,000.0,028.8,021.6,11.1,0000.0,0008.08,0003.75,0003.51
2023-11-30 11:17:00,SystemResetWarning,0823.0,5.01,000.00,020.4,019.4,000.0,028.8,021.6,11.1,0000.0,0008.32,0003.75,0003.50
2023-11-30 11:18:00,SystemResetWarning,0823.0,5.01,000.00,020.4,019.4,000.0,028.8,021.6,11.1,0000.0,0009.30,0003.77,0003.51
2023-11-30 11:19:00,SystemResetWarning,0823.1,5.01,000.00,020.4,019.4,000.0,028.8,021.6,11.2,0000.0,0009.00,0003.76,0003.51
2023-11-30 11:20:00,SystemResetWarning,0823.0,5.00,000.00,020.4,019.4,000.0,028.8,021.6,11.1,0000.0,0008.61,0003.78,0003.53
2023-11-30 11:21:00,SystemResetWarning,0822.6,5.00,000.00,020.3,019.4,000.0,028.8,021.4,11.1,0000.0,0008.51,0003.82,0003.55
2023-11-30 11:22:00,SystemResetWarning,0822.5,4.99,000.00,020.3,019.3,000.0,028.8,021.4,11.1,0000.0,0008.08,0003.86,0003.60
2023-11-30 11:23:00,SystemResetWarning,0822.7,5.00,000.00,020.3,019.3,000.0,028.7,021.3,11.1,0000.0,0008.65,0003.92,0003.65
2023-11-30 11:24:00,SystemResetWarning,0822.5,5.01,000.00,020.2,019.2,000.0,028.7,021.3,11.1,0000.0,0008.86,0003.98,0003.69
2023-11-30 11:25:00,SystemResetWarning,0822.5,4.99,000.00,020.2,019.2,000.0,028.7,021.3,11.1,0000.0,0008.87,0004.00,0003.72
2023-11-30 11:26:00,SystemResetWarning,0822.4,5.00,000.00,020.2,019.2,000.0,028.7,021.3,11.1,0000.0,0008.80,0004.02,0003.74
2023-11-30 11:27:00,SystemResetWarning,0822.4,4.99,000.00,020.2,019.2,000.0,028.7,021.3,11.1,0000.0,0009.29,0004.05,0003.76
2023-11-30 11:28:00,SystemResetWarning,0822.6,5.00,000.00,020.2,019.2,000.0,028.7,021.3,11.1,0000.0,0009.69,0004.07,0003.79
2023-11-30 11:29:00,SystemResetWarning,0822.9,5.00,000.00,020.2,019.2,000.0,028.6,021.2,11.1,0000.0,0008.58,0004.07,0003.81
2023-11-30 11:30:00,SystemResetWarning,0822.9,5.00,000.00,020.1,019.2,000.0,028.6,021.2,11.0,0000.0,0008.32,0004.07,0003.81
2023-11-30 11:31:00,SystemResetWarning,0822.9,5.00,000.00,020.1,019.2,000.0,028.6,021.2,11.0,0000.0,0008.22,0004.05,0003.81
2023-11-30 11:32:00,SystemResetWarning,0823.1,5.00,000.00,020.1,019.2,000.0,028.6,021.2,10.9,0000.0,0008.25,0004.04,0003.80
2023-11-30 11:33:00,SystemResetWarning,0822.8,5.00,000.00,020.1,019.1,000.0,028.6,021.2,10.9,0000.0,0008.29,0004.03,0003.77
2023-11-30 11:34:00,SystemResetWarning,0822.6,5.01,000.00,020.1,019.1,000.0,028.6,021.2,11.0,0000.0,0007.97,0004.00,0003.72
2023-11-30 11:35:00,SystemResetWarning,0822.6,5.00,000.00,020.1,019.1,000.0,028.6,021.2,11.1,0000.0,0007.53,0003.92,0003.66
2023-11-30 11:36:00,SystemResetWarning,0822.6,5.00,000.00,020.1,019.1,000.0,028.5,021.2,11.3,0000.0,0007.48,0003.87,0003.62
2023-11-30 11:37:00,SystemResetWarning,0822.6,5.00,000.00,020.0,019.1,000.0,028.5,021.1,11.3,0000.0,0007.49,0003.85,0003.60
2023-11-30 11:38:00,SystemResetWarning,0822.6,5.00,000.00,020.0,019.1,000.0,028.5,021.2,11.3,0000.0,0006.79,0003.87,0003.59
2023-11-30 11:39:00,SystemResetWarning,0822.6,5.00,000.00,020.0,019.1,000.0,028.5,021.2,11.3,0000.0,0006.00,0003.85,0003.57
2023-11-30 11:40:00,SystemResetWarning,0822.6,4.99,000.00,020.0,019.1,000.0,028.5,021.1,11.4,0000.0,0006.61,0003.83,0003.55
2023-11-30 11:41:00,SystemResetWarning,0822.6,5.01,000.00,020.0,019.1,000.0,028.5,021.1,11.5,0000.0,0006.72,0003.83,0003.53
2023-11-30 11:42:00,SystemResetWarning,0822.6,5.01,000.00,020.0,019.1,000.0,028.5,021.1,11.5,0000.0,0006.78,0003.83,0003.52
2023-11-30 11:43:00,SystemResetWarning,0822.6,5.01,000.00,020.0,019.1,000.0,028.5,021.1,11.4,0000.0,0007.03,0003.83,0003.50
2023-11-30 11:44:00,SystemResetWarning,0822.6,5.00,000.00,020.0,019.1,000.0,028.5,021.1,11.3,0000.0,0007.96,0003.80,0003.49
2023-11-30 11:45:00,SystemResetWarning,0822.6,4.99,000.00,019.9,019.1,000.0,028.5,021.1,11.2,0000.0,0008.07,0003.79,0003.49
2023-11-30 11:46:00,SystemResetWarning,0823.0,4.99,000.00,019.9,019.0,000.0,028.4,021.0,11.2,0000.0,0008.17,0003.82,0003.49
2023-11-30 11:47:00,SystemResetWarning,0823.1,5.00,000.00,019.9,019.0,000.0,028.4,021.0,11.3,0000.0,0008.15,0003.82,0003.50
2023-11-30 11:48:00,SystemResetWarning,0823.1,5.00,000.00,019.9,019.0,000.0,028.4,021.0,11.3,0000.0,0008.17,0003.83,0003.49
2023-11-30 11:49:00,SystemResetWarning,0823.1,5.00,000.00,019.9,019.0,000.0,028.4,021.0,11.4,0000.0,0008.10,0003.78,0003.48
2023-11-30 11:50:00,SystemResetWarning,0823.0,5.00,000.00,019.9,019.0,000.0,028.4,021.0,11.3,0000.0,0008.11,0003.78,0003.47
2023-11-30 11:51:00,SystemResetWarning,0822.6,5.01,000.00,019.9,019.0,000.0,028.4,020.9,11.3,0000.0,0008.02,0003.76,0003.46
2023-11-30 11:52:00,SystemResetWarning,0822.6,5.00,000.00,019.8,018.9,000.0,028.4,021.0,11.3,0000.0,0008.31,0003.75,0003.46
2023-11-30 11:53:00,SystemResetWarning,0822.7,5.00,000.00,019.8,018.9,000.0,028.4,020.9,11.3,0000.0,0008.24,0003.74,0003.46
2023-11-30 11:54:00,SystemResetWarning,0822.9,4.99,000.00,019.8,018.9,000.0,028.3,020.9,11.3,0000.0,0007.98,0003.71,0003.47
2023-11-30 11:55:00,SystemResetWarning,0822.9,4.99,000.00,019.8,018.9,000.0,028.3,020.9,11.3,0000.0,0006.97,0003.71,0003.46
2023-11-30 11:56:00,SystemResetWarning,0823.1,5.00,000.00,019.8,018.9,000.0,028.3,020.9,11.3,0000.0,0006.85,0003.71,0003.46
2023-11-30 11:57:00,SystemResetWarning,0823.1,5.00,000.00,019.8,018.9,000.0,028.3,020.9,11.3,0000.0,0006.72,0003.67,0003.45
2023-11-30 11:58:00,SystemResetWarning,0823.1,5.01,000.00,019.8,018.9,000.0,028.3,020.9,11.3,0000.0,0006.74,0003.67,0003.44
2023-11-30 11:59:00,SystemResetWarning,0822.6,5.00,000.00,019.7,018.9,000.0,028.3,020.9,11.3,0000.0,0006.73,0003.66,0003.44
